Radiation Dose at Monitoring Post of Fukushima Daini Nuclear Power Station
Date,Time,MP-1(microSv/h),MP-2(microSv/h),MP-3(microSv/h),MP-4(microSv/h),MP-5(microSv/h),MP-6(microSv/h),MP-7(microSv/h),Wind Direction,Wind Velocity(m/s),Rain
2023/03/01,00:00,0.156,0.141,0.221,0.217,0.215,0.124,0.079,west-northwest,1.3,No
2023/03/01,00:10,0.156,0.142,0.221,0.216,0.216,0.123,0.079,west,1.0,No
2023/03/01,00:20,0.156,0.142,0.221,0.217,0.215,0.124,0.079,west-northwest,0.9,No
2023/03/01,00:30,0.157,0.142,0.221,0.216,0.216,0.124,0.079,north-northwest,2.2,No
2023/03/01,00:40,0.156,0.142,0.221,0.217,0.215,0.124,0.078,west-northwest,2.0,No
2023/03/01,00:50,0.157,0.142,0.222,0.217,0.216,0.124,0.079,west-northwest,2.7,No
2023/03/01,01:00,0.156,0.142,0.221,0.217,0.214,0.124,0.079,west-northwest,4.8,No
2023/03/01,01:10,0.157,0.142,0.222,0.217,0.214,0.124,0.080,west-northwest,8.6,No
2023/03/01,01:20,0.157,0.141,0.220,0.216,0.216,0.124,0.078,west-northwest,6.1,No
2023/03/01,01:30,0.155,0.142,0.220,0.216,0.214,0.124,0.078,west,5.9,No
2023/03/01,01:40,0.156,0.142,0.222,0.217,0.215,0.124,0.079,west-northwest,6.5,No
2023/03/01,01:50,0.158,0.142,0.220,0.216,0.215,0.124,0.079,west,9.2,No
2023/03/01,02:00,0.156,0.142,0.221,0.216,0.214,0.123,0.078,west,10.4,No
2023/03/01,02:10,0.157,0.141,0.221,0.216,0.215,0.123,0.078,west,9.5,No
2023/03/01,02:20,0.157,0.142,0.220,0.216,0.214,0.123,0.079,west,10.6,No
2023/03/01,02:30,0.156,0.141,0.220,0.216,0.214,0.123,0.078,west,11.4,No
2023/03/01,02:40,0.157,0.142,0.220,0.216,0.214,0.124,0.079,west,11.2,No
2023/03/01,02:50,0.156,0.141,0.220,0.217,0.215,0.124,0.078,west-northwest,10.0,No
2023/03/01,03:00,0.156,0.141,0.221,0.216,0.214,0.123,0.078,west-northwest,10.1,No
2023/03/01,03:10,0.157,0.141,0.221,0.217,0.214,0.122,0.078,west-northwest,10.3,No
2023/03/01,03:20,0.156,0.141,0.220,0.217,0.216,0.123,0.078,west-northwest,11.4,No
2023/03/01,03:30,0.156,0.141,0.220,0.217,0.214,0.124,0.079,west-northwest,12.3,No
2023/03/01,03:40,0.156,0.142,0.221,0.217,0.215,0.124,0.079,west-northwest,11.5,No
2023/03/01,03:50,0.157,0.141,0.220,0.216,0.215,0.124,0.078,west-northwest,13.1,No
2023/03/01,04:00,0.156,0.141,0.221,0.217,0.215,0.124,0.078,west-northwest,13.1,No
2023/03/01,04:10,0.157,0.141,0.220,0.216,0.216,0.123,0.078,west-northwest,13.9,No
2023/03/01,04:20,0.157,0.141,0.221,0.216,0.215,0.123,0.078,west-northwest,13.4,No
2023/03/01,04:30,0.156,0.142,0.221,0.217,0.214,0.124,0.079,west-northwest,10.7,No
2023/03/01,04:40,0.157,0.141,0.221,0.218,0.215,0.124,0.078,west-northwest,11.4,No
2023/03/01,04:50,0.157,0.142,0.220,0.216,0.215,0.124,0.078,west-northwest,10.7,No
2023/03/01,05:00,0.156,0.141,0.220,0.216,0.215,0.124,0.078,west-northwest,8.4,No
2023/03/01,05:10,0.157,0.141,0.221,0.217,0.215,0.124,0.078,west-northwest,5.5,No
2023/03/01,05:20,0.156,0.141,0.221,0.216,0.215,0.123,0.078,west-northwest,3.5,No
2023/03/01,05:30,0.157,0.141,0.220,0.216,0.215,0.123,0.079,northwest,5.9,No
2023/03/01,05:40,0.157,0.142,0.220,0.217,0.215,0.123,0.079,west,6.0,No
2023/03/01,05:50,0.156,0.140,0.220,0.217,0.215,0.124,0.078,west-northwest,7.3,No
2023/03/01,06:00,0.156,0.142,0.221,0.216,0.216,0.123,0.079,west-northwest,6.7,No
2023/03/01,06:10,0.156,0.141,0.220,0.217,0.216,0.124,0.079,west-northwest,8.4,No
2023/03/01,06:20,0.156,0.142,0.220,0.218,0.215,0.124,0.078,west,10.9,No
2023/03/01,06:30,0.157,0.142,0.220,0.216,0.213,0.124,0.079,west,11.7,No
2023/03/01,06:40,0.156,0.141,0.220,0.217,0.217,0.123,0.079,west-northwest,11.4,No
2023/03/01,06:50,0.156,0.141,0.220,0.216,0.215,0.123,0.078,west,12.5,No
2023/03/01,07:00,0.157,0.141,0.221,0.217,0.215,0.123,0.079,west-northwest,12.6,No
2023/03/01,07:10,0.156,0.141,0.221,0.216,0.217,0.123,0.078,west,11.5,No
2023/03/01,07:20,0.155,0.142,0.220,0.216,0.215,0.123,0.080,west,10.9,No
2023/03/01,07:30,0.157,0.142,0.220,0.215,0.215,0.124,0.079,west-northwest,10.9,No
2023/03/01,07:40,0.155,0.141,0.221,0.217,0.215,0.124,0.078,west-northwest,10.6,No
2023/03/01,07:50,0.157,0.141,0.221,0.216,0.216,0.123,0.078,west,10.3,No
2023/03/01,08:00,0.156,0.140,0.220,0.215,0.217,0.124,0.078,west-northwest,10.0,No
2023/03/01,08:10,0.155,0.141,0.220,0.216,0.215,0.123,0.078,west-northwest,11.2,No
2023/03/01,08:20,0.156,0.142,0.222,0.216,0.214,0.122,0.079,west-northwest,9.6,No
2023/03/01,08:30,0.155,0.141,0.220,0.217,0.215,0.124,0.078,west,10.9,No
2023/03/01,08:40,0.156,0.141,0.221,0.217,0.214,0.123,0.079,west-northwest,11.8,No
2023/03/01,08:50,0.156,0.141,0.219,0.216,0.216,0.123,0.079,west,11.2,No
2023/03/01,09:00,0.156,0.141,0.221,0.216,0.214,0.123,0.078,west,9.8,No
2023/03/01,09:10,0.157,0.142,0.220,0.215,0.215,0.124,0.079,west,10.4,No
2023/03/01,09:20,0.157,0.141,0.220,0.216,0.216,0.123,0.079,west,10.3,No
2023/03/01,09:30,0.156,0.141,0.221,0.216,0.214,0.123,0.079,west,11.4,No
2023/03/01,09:40,0.156,0.142,0.220,0.216,0.215,0.124,0.079,west,6.2,No
2023/03/01,09:50,0.157,0.140,0.219,0.214,0.215,0.124,0.078,west-southwest,6.9,No
2023/03/01,10:00,0.155,0.142,0.221,0.216,0.215,0.123,0.078,west-southwest,4.3,No
2023/03/01,10:10,0.156,0.140,0.220,0.215,0.215,0.124,0.078,west,6.4,No
2023/03/01,10:20,0.156,0.142,0.220,0.213,0.213,0.123,0.079,west,6.9,No
2023/03/01,10:30,0.154,0.141,0.220,0.217,0.215,0.122,0.079,west,5.4,No
2023/03/01,10:40,0.156,0.140,0.218,0.214,0.215,0.123,0.078,west-southwest,4.7,No
2023/03/01,10:50,0.155,0.140,0.219,0.213,0.213,0.123,0.079,southwest,1.7,No
2023/03/01,11:00,0.154,0.140,0.221,0.216,0.214,0.122,0.079,southeast,3.5,No
2023/03/01,11:10,0.154,0.140,0.218,0.215,0.215,0.124,0.078,southeast,6.4,No
2023/03/01,11:20,0.156,0.141,0.218,0.215,0.213,0.124,0.078,southeast,5.8,No
2023/03/01,11:30,0.156,0.141,0.221,0.216,0.214,0.123,0.078,east-southeast,3.8,No
2023/03/01,11:40,0.155,0.141,0.219,0.215,0.216,0.125,0.079,southeast,4.6,No
2023/03/01,11:50,0.154,0.142,0.220,0.215,0.213,0.123,0.078,southeast,3.6,No
2023/03/01,12:00,0.157,0.141,0.221,0.218,0.215,0.124,0.078,east-southeast,2.8,No
2023/03/01,12:10,0.157,0.141,0.219,0.216,0.216,0.124,0.079,southeast,4.0,No
2023/03/01,12:20,0.155,0.141,0.221,0.216,0.214,0.123,0.078,east-southeast,2.5,No
2023/03/01,12:30,0.154,0.140,0.221,0.216,0.215,0.124,0.078,east-southeast,4.1,No
2023/03/01,12:40,0.155,0.141,0.218,0.214,0.216,0.124,0.079,southeast,3.9,No
2023/03/01,12:50,0.157,0.142,0.220,0.217,0.213,0.123,0.078,south-southeast,2.7,No
2023/03/01,13:00,0.156,0.140,0.220,0.215,0.215,0.125,0.078,south-southeast,3.5,No
2023/03/01,13:10,0.153,0.142,0.218,0.215,0.214,0.124,0.078,south-southeast,4.7,No
2023/03/01,13:20,0.154,0.141,0.221,0.218,0.213,0.123,0.078,south-southeast,6.2,No
2023/03/01,13:30,0.156,0.141,0.220,0.216,0.215,0.125,0.079,south-southeast,5.7,No
2023/03/01,13:40,0.156,0.141,0.219,0.215,0.216,0.122,0.078,south-southeast,6.4,No
2023/03/01,13:50,0.154,0.141,0.221,0.217,0.213,0.124,0.078,south-southeast,5.6,No
2023/03/01,14:00,0.156,0.141,0.220,0.214,0.214,0.124,0.079,south-southeast,6.2,No
2023/03/01,14:10,0.157,0.141,0.220,0.218,0.215,0.124,0.079,south-southeast,4.3,No
2023/03/01,14:20,0.155,0.141,0.222,0.216,0.213,0.125,0.078,southeast,3.1,No
2023/03/01,14:30,0.154,0.141,0.220,0.218,0.215,0.124,0.079,-,CALM,No
2023/03/01,14:40,0.157,0.140,0.222,0.216,0.215,0.123,0.079,-,CALM,No
2023/03/01,14:50,0.156,0.142,0.219,0.216,0.213,0.124,0.079,east-northeast,1.3,No
2023/03/01,15:00,0.155,0.140,0.222,0.216,0.217,0.124,0.078,south-southeast,1.9,No
2023/03/01,15:10,0.155,0.141,0.221,0.217,0.214,0.124,0.078,east,1.8,No
2023/03/01,15:20,0.156,0.141,0.221,0.218,0.216,0.124,0.079,east-northeast,0.6,No
2023/03/01,15:30,0.155,0.143,0.222,0.218,0.215,0.123,0.079,east-northeast,0.8,No
2023/03/01,15:40,0.156,0.141,0.220,0.216,0.218,0.124,0.078,east,1.4,No
2023/03/01,15:50,0.156,0.142,0.222,0.217,0.214,0.124,0.079,south-southeast,2.4,No
2023/03/01,16:00,0.157,0.141,0.221,0.216,0.216,0.124,0.078,southeast,1.1,No
2023/03/01,16:10,0.156,0.141,0.222,0.218,0.215,0.123,0.079,south,2.6,No
2023/03/01,16:20,0.158,0.141,0.221,0.216,0.216,0.123,0.079,south-southeast,1.4,No
2023/03/01,16:30,0.157,0.142,0.221,0.217,0.214,0.124,0.078,south,2.5,No
2023/03/01,16:40,0.157,0.142,0.222,0.217,0.216,0.124,0.078,south-southeast,2.8,No
2023/03/01,16:50,0.155,0.141,0.221,0.216,0.215,0.124,0.078,south-southeast,3.0,No
2023/03/01,17:00,0.157,0.143,0.221,0.218,0.214,0.125,0.078,south,3.1,No
2023/03/01,17:10,0.157,0.142,0.222,0.216,0.215,0.123,0.079,south-southeast,2.8,No
2023/03/01,17:20,0.156,0.141,0.220,0.218,0.216,0.124,0.079,south-southeast,1.3,No
2023/03/01,17:30,0.157,0.140,0.221,0.218,0.216,0.123,0.079,south,3.5,No
2023/03/01,17:40,0.156,0.141,0.221,0.217,0.215,0.124,0.078,south,2.5,No
2023/03/01,17:50,0.157,0.141,0.220,0.217,0.216,0.124,0.078,south-southeast,2.3,No
2023/03/01,18:00,0.156,0.141,0.221,0.216,0.215,0.124,0.079,south-southeast,1.3,No
2023/03/01,18:10,0.156,0.142,0.221,0.217,0.214,0.123,0.078,south-southeast,1.0,No
2023/03/01,18:20,0.157,0.142,0.221,0.217,0.216,0.124,0.079,south-southeast,3.2,No
2023/03/01,18:30,0.156,0.142,0.222,0.217,0.216,0.124,0.079,south,4.5,No
2023/03/01,18:40,0.156,0.141,0.222,0.216,0.215,0.123,0.078,south,3.3,No
2023/03/01,18:50,0.157,0.141,0.221,0.218,0.215,0.124,0.079,south,3.8,No
2023/03/01,19:00,0.156,0.142,0.220,0.217,0.215,0.124,0.079,south,3.2,No
2023/03/01,19:10,0.156,0.142,0.221,0.217,0.215,0.124,0.078,south,4.4,No
2023/03/01,19:20,0.156,0.142,0.220,0.217,0.215,0.125,0.079,south-southwest,4.5,No
2023/03/01,19:30,0.156,0.142,0.221,0.217,0.214,0.123,0.079,south-southwest,3.7,No
2023/03/01,19:40,0.156,0.142,0.220,0.217,0.216,0.125,0.078,southwest,3.8,No
2023/03/01,19:50,0.157,0.141,0.221,0.219,0.214,0.124,0.079,south-southwest,3.8,No
2023/03/01,20:00,0.156,0.141,0.221,0.216,0.215,0.124,0.079,south-southwest,3.4,No
2023/03/01,20:10,0.157,0.142,0.220,0.217,0.216,0.124,0.078,southwest,3.7,No
2023/03/01,20:20,0.157,0.141,0.221,0.217,0.214,0.123,0.079,southwest,2.8,No
2023/03/01,20:30,0.156,0.142,0.220,0.217,0.216,0.124,0.079,southwest,3.2,No
2023/03/01,20:40,0.156,0.142,0.222,0.217,0.215,0.125,0.079,southwest,4.1,No
2023/03/01,20:50,0.156,0.144,0.221,0.218,0.216,0.124,0.079,south-southwest,4.5,No
2023/03/01,21:00,0.157,0.142,0.222,0.217,0.216,0.124,0.079,south-southwest,4.8,No
2023/03/01,21:10,0.157,0.141,0.222,0.217,0.215,0.124,0.080,south-southwest,5.3,No
2023/03/01,21:20,0.156,0.142,0.222,0.219,0.216,0.125,0.079,south-southwest,5.8,No
2023/03/01,21:30,0.156,0.141,0.222,0.217,0.217,0.125,0.079,south-southwest,5.2,No
2023/03/01,21:40,0.158,0.142,0.221,0.218,0.216,0.124,0.078,south-southwest,4.6,No
2023/03/01,21:50,0.157,0.142,0.222,0.217,0.215,0.124,0.079,south-southwest,5.8,No
2023/03/01,22:00,0.156,0.143,0.221,0.217,0.216,0.125,0.079,south-southwest,5.7,No
2023/03/01,22:10,0.156,0.142,0.221,0.217,0.215,0.124,0.079,south-southwest,4.8,No
2023/03/01,22:20,0.156,0.142,0.222,0.217,0.216,0.124,0.079,south-southwest,4.0,No
2023/03/01,22:30,0.156,0.142,0.222,0.217,0.215,0.124,0.080,southwest,3.6,No
2023/03/01,22:40,0.156,0.141,0.223,0.218,0.214,0.125,0.080,south-southwest,3.1,No
2023/03/01,22:50,0.156,0.142,0.221,0.218,0.216,0.125,0.079,southwest,3.8,No
2023/03/01,23:00,0.157,0.142,0.222,0.217,0.214,0.125,0.079,southwest,4.3,No
2023/03/01,23:10,0.158,0.142,0.222,0.217,0.216,0.124,0.079,south-southwest,4.2,No
2023/03/01,23:20,0.157,0.143,0.222,0.216,0.216,0.125,0.079,south,4.3,No
2023/03/01,23:30,0.156,0.142,0.222,0.216,0.215,0.125,0.079,south,5.2,No
2023/03/01,23:40,0.156,0.143,0.221,0.218,0.216,0.125,0.079,south,6.3,No
2023/03/01,23:50,0.158,0.142,0.222,0.218,0.215,0.123,0.079,south,6.9,No
